GLO1622 SBCX-SBCT

Flight info

Callsign GLO1622
Flight time 0h 47m
Altitude 33000
Route BURPI DCT PENSO UZ132 VUGUP
Aircraft B738/M-SDE2E3FGHIRWXY/LB1

Departure

Time 2026-04-12 02:29
Airport Hugo Cantergiani Regional Airport (SBCX)

Arrival

Time 2026-04-12 03:16
Airport Curitiba-Afonso Pena International Airport (SBCT)
Time Latitude Longitude Altitude Speed Heading
2026-04-12 01:58 -29.19546 -51.18723 2467 ft 0 kts 46°
2026-04-12 02:21 -29.19550 -51.18728 2469 ft 2 kts 47°
2026-04-12 02:22 -29.19562 -51.18741 2470 ft 2 kts 46°
2026-04-12 02:22 -29.19566 -51.18758 2472 ft 2 kts 123°
2026-04-12 02:22 -29.19555 -51.18772 2466 ft 2 kts 138°
2026-04-12 02:22 -29.19543 -51.18784 2467 ft 1 kts 139°
2026-04-12 02:23 -29.19541 -51.18787 2472 ft 0 kts 137°
2026-04-12 02:24 -29.19541 -51.18786 2472 ft 0 kts 137°
2026-04-12 02:25 -29.19550 -51.18782 2467 ft 2 kts 169°
2026-04-12 02:25 -29.19575 -51.18794 2466 ft 5 kts 217°
2026-04-12 02:25 -29.19609 -51.18837 2467 ft 9 kts 239°
2026-04-12 02:25 -29.19600 -51.18889 2470 ft 8 kts 312°
2026-04-12 02:26 -29.19548 -51.18949 2469 ft 13 kts 315°
2026-04-12 02:26 -29.19464 -51.19045 2467 ft 19 kts 316°
2026-04-12 02:26 -29.19359 -51.19158 2472 ft 23 kts 316°
2026-04-12 02:26 -29.19239 -51.19290 2468 ft 25 kts 316°
2026-04-12 02:27 -29.19128 -51.19422 2470 ft 8 kts 288°
2026-04-12 02:27 -29.19115 -51.19442 2470 ft 1 kts 348°
2026-04-12 02:27 -29.19112 -51.19436 2470 ft 1 kts 62°
2026-04-12 02:27 -29.19119 -51.19423 2470 ft 4 kts 124°
2026-04-12 02:28 -29.19136 -51.19402 2470 ft 0 kts 136°
2026-04-12 02:28 -29.19137 -51.19402 2470 ft 0 kts 136°
2026-04-12 02:28 -29.19156 -51.19380 2470 ft 27 kts 136°
2026-04-12 02:28 -29.19514 -51.18984 2468 ft 112 kts 136°
2026-04-12 02:29 -29.20232 -51.18198 2638 ft 163 kts 134°
2026-04-12 02:29 -29.21118 -51.17271 3379 ft 168 kts 131°
2026-04-12 02:29 -29.21961 -51.16201 3805 ft 197 kts 129°
2026-04-12 02:29 -29.22644 -51.15372 4127 ft 209 kts 131°
2026-04-12 02:30 -29.23708 -51.14047 4565 ft 217 kts 114°
2026-04-12 02:30 -29.23935 -51.12311 4863 ft 224 kts 72°
2026-04-12 02:30 -29.23112 -51.10807 5073 ft 237 kts 35°
2026-04-12 02:30 -29.21545 -51.10075 5441 ft 252 kts 12°
2026-04-12 02:31 -29.19805 -51.09658 6002 ft 263 kts 11°
2026-04-12 02:31 -29.17988 -51.09253 6764 ft 268 kts 10°
2026-04-12 02:31 -29.16122 -51.08836 7613 ft 270 kts
2026-04-12 02:31 -29.14263 -51.08414 8371 ft 278 kts 10°
2026-04-12 02:32 -29.12339 -51.07970 9225 ft 278 kts
2026-04-12 02:32 -29.10408 -51.07519 9887 ft 287 kts
2026-04-12 02:32 -29.08372 -51.07038 10722 ft 293 kts 10°
2026-04-12 02:32 -29.06368 -51.06560 11583 ft 293 kts 10°
2026-04-12 02:33 -29.04326 -51.06072 12295 ft 298 kts 10°
2026-04-12 02:33 -29.02281 -51.05581 13008 ft 302 kts 10°
2026-04-12 02:33 -29.00153 -51.05069 13750 ft 306 kts 10°
2026-04-12 02:33 -28.98060 -51.04565 14449 ft 308 kts 10°
2026-04-12 02:34 -28.95955 -51.04057 15149 ft 310 kts 10°
2026-04-12 02:34 -28.93816 -51.03541 15872 ft 311 kts 10°
2026-04-12 02:34 -28.91625 -51.03013 16588 ft 313 kts 10°
2026-04-12 02:34 -28.89459 -51.02491 17273 ft 316 kts 10°
2026-04-12 02:35 -28.87302 -51.01972 17955 ft 318 kts
2026-04-12 02:35 -28.85094 -51.01440 18623 ft 320 kts
2026-04-12 02:35 -28.83104 -51.00961 19138 ft 323 kts
2026-04-12 02:35 -28.80863 -51.00422 19719 ft 326 kts
2026-04-12 02:36 -28.78633 -50.99886 20279 ft 329 kts
2026-04-12 02:36 -28.76409 -50.99351 20831 ft 332 kts
2026-04-12 02:36 -28.74113 -50.98799 21386 ft 336 kts
2026-04-12 02:36 -28.72641 -50.98446 21719 ft 338 kts
2026-04-12 02:37 -28.70630 -50.97964 22180 ft 341 kts
2026-04-12 02:37 -28.68201 -50.97381 22751 ft 344 kts
2026-04-12 02:37 -28.65752 -50.96793 23305 ft 347 kts
2026-04-12 02:37 -28.63374 -50.96222 23820 ft 351 kts
2026-04-12 02:38 -28.61039 -50.95663 24248 ft 354 kts
2026-04-12 02:38 -28.58623 -50.95084 24689 ft 356 kts
2026-04-12 02:38 -28.56503 -50.94576 25097 ft 358 kts
2026-04-12 02:38 -28.54000 -50.93976 25543 ft 361 kts
2026-04-12 02:39 -28.51540 -50.93387 25974 ft 364 kts
2026-04-12 02:39 -28.49003 -50.92780 26406 ft 367 kts
2026-04-12 02:39 -28.46503 -50.92182 26836 ft 369 kts
2026-04-12 02:39 -28.43932 -50.91568 27261 ft 372 kts
2026-04-12 02:40 -28.41395 -50.90962 27670 ft 375 kts
2026-04-12 02:40 -28.38835 -50.90351 28083 ft 378 kts
2026-04-12 02:40 -28.36266 -50.89737 28493 ft 380 kts
2026-04-12 02:40 -28.33667 -50.89118 28881 ft 383 kts
2026-04-12 02:41 -28.31013 -50.88485 29267 ft 386 kts
2026-04-12 02:41 -28.28368 -50.87854 29656 ft 388 kts
2026-04-12 02:41 -28.25717 -50.87223 30031 ft 391 kts
2026-04-12 02:41 -28.23072 -50.86593 30384 ft 393 kts
2026-04-12 02:42 -28.20352 -50.85945 30691 ft 396 kts
2026-04-12 02:42 -28.17647 -50.85301 31016 ft 397 kts
2026-04-12 02:42 -28.14929 -50.84655 31304 ft 400 kts
2026-04-12 02:43 -28.09424 -50.83347 31865 ft 405 kts
2026-04-12 02:43 -28.06647 -50.82686 32156 ft 407 kts
2026-04-12 02:43 -28.03934 -50.81795 32424 ft 416 kts 15°
2026-04-12 02:43 -28.01209 -50.80345 32653 ft 424 kts 21°
2026-04-12 02:44 -27.98551 -50.78747 32915 ft 427 kts 22°
2026-04-12 02:44 -27.95945 -50.77139 33169 ft 430 kts 22°
2026-04-12 02:44 -27.93272 -50.75490 33218 ft 436 kts 22°
2026-04-12 02:45 -27.87954 -50.72255 33233 ft 448 kts 22°
2026-04-12 02:45 -27.83040 -50.69308 33246 ft 459 kts 22°
2026-04-12 02:46 -27.77411 -50.65949 33236 ft 470 kts 22°
2026-04-12 02:46 -27.71608 -50.62488 33228 ft 473 kts 22°
2026-04-12 02:47 -27.65789 -50.59020 33221 ft 474 kts 22°
2026-04-12 02:47 -27.59878 -50.55503 33222 ft 474 kts 22°
2026-04-12 02:48 -27.54402 -50.52249 33234 ft 472 kts 22°
2026-04-12 02:48 -27.48677 -50.48851 33226 ft 470 kts 22°
2026-04-12 02:49 -27.42923 -50.45440 33233 ft 467 kts 23°
2026-04-12 02:49 -27.37385 -50.42115 33234 ft 466 kts 23°
2026-04-12 02:50 -27.31749 -50.38716 33239 ft 465 kts 23°
2026-04-12 02:50 -27.25993 -50.35255 33210 ft 458 kts 23°
2026-04-12 02:51 -27.20458 -50.31939 33222 ft 452 kts 22°
2026-04-12 02:51 -27.14810 -50.28607 32943 ft 453 kts 22°
2026-04-12 02:51 -27.11928 -50.26913 32621 ft 446 kts 22°
2026-04-12 02:52 -27.09213 -50.25316 32206 ft 443 kts 22°
2026-04-12 02:52 -27.06445 -50.23689 31825 ft 440 kts 22°
2026-04-12 02:52 -27.03675 -50.22060 31402 ft 437 kts 23°
2026-04-12 02:52 -27.01003 -50.20490 31020 ft 434 kts 23°
2026-04-12 02:53 -26.98262 -50.18879 30615 ft 432 kts 23°
2026-04-12 02:53 -26.95610 -50.17321 30198 ft 429 kts 23°
2026-04-12 02:53 -26.90313 -50.14212 29316 ft 423 kts 23°
2026-04-12 02:54 -26.88632 -50.13226 29040 ft 421 kts 23°
2026-04-12 02:54 -26.85991 -50.11677 28626 ft 417 kts 23°
2026-04-12 02:54 -26.83413 -50.10166 28224 ft 413 kts 23°
2026-04-12 02:54 -26.80845 -50.08662 27815 ft 410 kts 23°
2026-04-12 02:55 -26.78260 -50.07149 27417 ft 407 kts 23°
2026-04-12 02:55 -26.75717 -50.05662 27010 ft 404 kts 23°
2026-04-12 02:55 -26.73235 -50.04210 26613 ft 402 kts 24°
2026-04-12 02:55 -26.70733 -50.02747 26226 ft 399 kts 24°
2026-04-12 02:56 -26.68278 -50.01313 25840 ft 397 kts 24°
2026-04-12 02:56 -26.65831 -49.99885 25462 ft 394 kts 24°
2026-04-12 02:56 -26.63367 -49.98447 25075 ft 393 kts 24°
2026-04-12 02:56 -26.60952 -49.97039 24692 ft 391 kts 24°
2026-04-12 02:57 -26.58585 -49.95659 24303 ft 390 kts 24°
2026-04-12 02:57 -26.56147 -49.94238 23914 ft 388 kts 24°
2026-04-12 02:57 -26.54271 -49.93145 23574 ft 387 kts 24°
2026-04-12 02:57 -26.51753 -49.91677 23129 ft 384 kts 24°
2026-04-12 02:58 -26.49385 -49.90299 22726 ft 381 kts 25°
2026-04-12 02:58 -26.47054 -49.88943 22345 ft 379 kts 25°
2026-04-12 02:58 -26.44887 -49.87683 21995 ft 376 kts 25°
2026-04-12 02:58 -26.42734 -49.86432 21649 ft 374 kts 25°
2026-04-12 02:59 -26.40541 -49.85157 21299 ft 371 kts 25°
2026-04-12 02:59 -26.38256 -49.83830 20932 ft 369 kts 25°
2026-04-12 02:59 -26.35991 -49.82515 20550 ft 367 kts 25°
2026-04-12 02:59 -26.33745 -49.81219 20208 ft 364 kts 25°
2026-04-12 03:00 -26.31440 -49.80007 19968 ft 358 kts 22°
2026-04-12 03:00 -26.29207 -49.78907 19726 ft 353 kts 22°
2026-04-12 03:00 -26.26948 -49.77817 19410 ft 350 kts 22°
2026-04-12 03:00 -26.24759 -49.76762 19075 ft 349 kts 22°
2026-04-12 03:01 -26.22488 -49.75663 18711 ft 349 kts 22°
2026-04-12 03:01 -26.20273 -49.74586 18325 ft 348 kts 22°
2026-04-12 03:01 -26.18074 -49.73513 17933 ft 347 kts 22°
2026-04-12 03:01 -26.16012 -49.72504 17572 ft 346 kts 23°
2026-04-12 03:02 -26.13796 -49.71419 17210 ft 344 kts 22°
2026-04-12 03:02 -26.11628 -49.70356 16856 ft 342 kts 22°
2026-04-12 03:02 -26.09558 -49.69341 16518 ft 340 kts 22°
2026-04-12 03:02 -26.07465 -49.68315 16176 ft 339 kts 22°
2026-04-12 03:03 -26.05351 -49.67280 15827 ft 338 kts 22°
2026-04-12 03:03 -26.03232 -49.66242 15486 ft 336 kts 23°
2026-04-12 03:03 -26.01150 -49.65223 15141 ft 335 kts 23°
2026-04-12 03:03 -25.98944 -49.64143 14783 ft 334 kts 23°
2026-04-12 03:04 -25.96969 -49.63177 14453 ft 333 kts 23°
2026-04-12 03:04 -25.94823 -49.62127 14095 ft 333 kts 23°
2026-04-12 03:04 -25.93426 -49.61444 13821 ft 333 kts 23°
2026-04-12 03:04 -25.90644 -49.60084 13341 ft 331 kts 23°
2026-04-12 03:05 -25.89325 -49.59439 13118 ft 330 kts 23°
2026-04-12 03:05 -25.87273 -49.58436 12758 ft 328 kts 23°
2026-04-12 03:05 -25.85237 -49.57443 12416 ft 326 kts 23°
2026-04-12 03:05 -25.83141 -49.56420 12079 ft 325 kts 23°
2026-04-12 03:06 -25.81206 -49.55475 11755 ft 323 kts 23°
2026-04-12 03:06 -25.79143 -49.54470 11416 ft 322 kts 23°
2026-04-12 03:06 -25.77142 -49.53494 11079 ft 321 kts 23°
2026-04-12 03:06 -25.75145 -49.52521 10747 ft 320 kts 23°
2026-04-12 03:07 -25.73197 -49.51572 10524 ft 314 kts 23°
2026-04-12 03:07 -25.71221 -49.50609 10397 ft 306 kts 23°
2026-04-12 03:07 -25.69472 -49.49758 10272 ft 300 kts 23°
2026-04-12 03:07 -25.67564 -49.48829 10160 ft 291 kts 23°
2026-04-12 03:08 -25.65674 -49.47910 9680 ft 296 kts 24°
2026-04-12 03:08 -25.63791 -49.46994 9383 ft 294 kts 24°
2026-04-12 03:08 -25.61821 -49.46037 8834 ft 301 kts 24°
2026-04-12 03:08 -25.59918 -49.45112 8513 ft 299 kts 24°
2026-04-12 03:09 -25.58035 -49.44197 8195 ft 298 kts 25°
2026-04-12 03:09 -25.56456 -49.43430 7947 ft 296 kts 25°
2026-04-12 03:09 -25.54487 -49.42474 7654 ft 293 kts 25°
2026-04-12 03:09 -25.52541 -49.41529 7333 ft 291 kts 25°
2026-04-12 03:10 -25.50686 -49.40630 7038 ft 288 kts 25°
2026-04-12 03:10 -25.48861 -49.39745 6762 ft 287 kts 25°
2026-04-12 03:10 -25.47178 -49.38710 6667 ft 274 kts 43°
2026-04-12 03:10 -25.45870 -49.37291 6733 ft 253 kts 46°
2026-04-12 03:11 -25.44706 -49.36010 6624 ft 235 kts 46°
2026-04-12 03:11 -25.43580 -49.34784 6486 ft 218 kts 46°
2026-04-12 03:11 -25.42550 -49.33668 6377 ft 201 kts 46°
2026-04-12 03:11 -25.41840 -49.32405 6265 ft 182 kts 74°
2026-04-12 03:12 -25.41743 -49.31034 5933 ft 181 kts 97°
2026-04-12 03:12 -25.42126 -49.29717 5682 ft 178 kts 116°
2026-04-12 03:12 -25.42889 -49.28709 5487 ft 180 kts 131°
2026-04-12 03:12 -25.43818 -49.27682 5288 ft 180 kts 130°
2026-04-12 03:13 -25.44689 -49.26711 5054 ft 180 kts 129°
2026-04-12 03:13 -25.45595 -49.25703 4815 ft 179 kts 130°
2026-04-12 03:13 -25.46465 -49.24735 4550 ft 177 kts 131°
2026-04-12 03:13 -25.47333 -49.23783 4368 ft 172 kts 131°
2026-04-12 03:14 -25.47888 -49.23164 4253 ft 171 kts 130°
2026-04-12 03:14 -25.48709 -49.22240 4022 ft 159 kts 130°
2026-04-12 03:14 -25.49464 -49.21389 3831 ft 151 kts 131°
2026-04-12 03:14 -25.50204 -49.20555 3637 ft 150 kts 132°
2026-04-12 03:15 -25.50914 -49.19758 3379 ft 137 kts 131°
2026-04-12 03:15 -25.51472 -49.19142 3228 ft 130 kts 131°
2026-04-12 03:15 -25.52045 -49.18473 3088 ft 131 kts 134°
2026-04-12 03:15 -25.52665 -49.17798 2991 ft 114 kts 133°
2026-04-12 03:16 -25.53106 -49.17282 2983 ft 77 kts 131°
2026-04-12 03:16 -25.53448 -49.16903 2981 ft 51 kts 135°
2026-04-12 03:16 -25.53592 -49.16777 2980 ft 9 kts 194°
2026-04-12 03:16 -25.53611 -49.16810 2980 ft 5 kts 268°
2026-04-12 03:17 -25.53611 -49.16890 2980 ft 17 kts 268°
2026-04-12 03:17 -25.53630 -49.17037 2980 ft 16 kts 288°
2026-04-12 03:17 -25.53552 -49.17132 2980 ft 19 kts 314°
2026-04-12 03:17 -25.53530 -49.17180 2980 ft 6 kts 262°
2026-04-12 03:18 -25.53558 -49.17224 2979 ft 0 kts 226°
2026-04-12 03:18 -25.53560 -49.17226 2979 ft 0 kts 226°